Time,TemperatureF,DewpointF,PressureIn,WindDirection,WindDirectionDegrees,WindSpeedMPH,WindSpeedGustMPH,Humidity,HourlyPrecipIn,Conditions,Clouds,dailyrainin,SoftwareType,DateUTC
2013-07-26 00:02:00,67.0,65.0,30.02,North,355,0.0,-999.0,93,-99.99,,,-99.99,,2013-07-26 05:02:00,
2013-07-26 00:12:00,67.0,65.0,30.02,North,355,0.0,-999.0,93,-99.99,,,-99.99,,2013-07-26 05:12:00,
2013-07-26 00:22:00,67.0,65.0,30.01,North,355,0.0,-999.0,93,-99.99,,,-99.99,,2013-07-26 05:22:00,
2013-07-26 00:32:00,67.0,65.0,30.02,North,355,0.0,-999.0,93,-99.99,,,-99.99,,2013-07-26 05:32:00,
2013-07-26 00:43:00,67.0,65.0,30.02,North,355,0.0,-999.0,93,-99.99,,,-99.99,,2013-07-26 05:43:00,
2013-07-26 00:52:00,66.0,64.0,30.01,North,355,0.0,-999.0,93,-99.99,,,-99.99,,2013-07-26 05:52:00,
2013-07-26 01:12:00,66.0,64.0,30.01,North,355,0.0,-999.0,93,-99.99,,,-99.99,,2013-07-26 06:12:00,
2013-07-26 01:22:00,66.0,64.0,30.00,NNE,22,0.0,-999.0,94,-99.99,,,-99.99,,2013-07-26 06:22:00,
2013-07-26 01:33:00,66.0,64.0,30.01,NE,46,0.0,-999.0,94,-99.99,,,-99.99,,2013-07-26 06:33:00,
2013-07-26 01:43:00,66.0,64.0,30.01,NE,46,0.0,-999.0,94,-99.99,,,-99.99,,2013-07-26 06:43:00,
2013-07-26 01:52:00,65.0,63.0,29.99,NE,46,0.0,-999.0,94,-99.99,,,-99.99,,2013-07-26 06:52:00,
2013-07-26 02:02:00,65.0,63.0,29.99,NE,46,0.0,-999.0,94,-99.99,,,-99.99,,2013-07-26 07:02:00,
2013-07-26 02:12:00,65.0,63.0,29.99,NE,46,0.0,-999.0,94,-99.99,,,-99.99,,2013-07-26 07:12:00,
2013-07-26 02:22:00,65.0,63.0,30.01,NE,46,0.0,-999.0,94,-99.99,,,-99.99,,2013-07-26 07:22:00,
2013-07-26 02:32:00,65.0,63.0,30.01,NE,46,0.0,-999.0,94,-99.99,,,-99.99,,2013-07-26 07:32:00,
2013-07-26 02:43:00,65.0,63.0,30.01,NE,46,0.0,-999.0,94,-99.99,,,-99.99,,2013-07-26 07:43:00,
2013-07-26 02:53:00,64.0,62.0,30.01,NE,46,0.0,-999.0,94,-99.99,,,-99.99,,2013-07-26 07:53:00,
2013-07-26 03:02:00,64.0,63.0,30.00,NE,46,0.0,-999.0,95,-99.99,,,-99.99,,2013-07-26 08:02:00,
2013-07-26 03:12:00,64.0,63.0,30.00,NE,46,0.0,-999.0,95,-99.99,,,-99.99,,2013-07-26 08:12:00,
2013-07-26 03:22:00,64.0,62.0,29.99,NE,46,0.0,-999.0,94,-99.99,,,-99.99,,2013-07-26 08:22:00,
2013-07-26 03:32:00,63.0,61.0,29.99,NE,46,0.0,-999.0,94,-99.99,,,-99.99,,2013-07-26 08:32:00,
2013-07-26 03:44:00,63.0,61.0,29.99,NE,46,0.0,-999.0,94,-99.99,,,-99.99,,2013-07-26 08:44:00,
2013-07-26 03:52:00,63.0,61.0,29.99,NE,46,0.0,-999.0,94,-99.99,,,-99.99,,2013-07-26 08:52:00,
2013-07-26 04:02:00,63.0,61.0,29.98,NE,46,0.0,-999.0,94,-99.99,,,-99.99,,2013-07-26 09:02:00,
2013-07-26 04:12:00,63.0,61.0,29.98,NE,46,0.0,-999.0,94,-99.99,,,-99.99,,2013-07-26 09:12:00,
2013-07-26 04:22:00,63.0,61.0,29.98,NE,46,0.0,-999.0,94,-99.99,,,-99.99,,2013-07-26 09:22:00,
2013-07-26 04:32:00,63.0,62.0,29.98,NE,46,0.0,-999.0,95,-99.99,,,-99.99,,2013-07-26 09:32:00,
2013-07-26 04:43:00,63.0,62.0,29.98,NE,46,0.0,-999.0,95,-99.99,,,-99.99,,2013-07-26 09:43:00,
2013-07-26 04:52:00,63.0,62.0,29.98,NE,46,0.0,-999.0,95,-99.99,,,-99.99,,2013-07-26 09:52:00,
2013-07-26 05:02:00,63.0,62.0,29.99,NE,46,0.0,-999.0,95,-99.99,,,-99.99,,2013-07-26 10:02:00,
2013-07-26 05:12:00,63.0,62.0,29.99,NE,46,0.0,-999.0,95,-99.99,,,-99.99,,2013-07-26 10:12:00,
2013-07-26 05:22:00,63.0,62.0,29.99,NE,46,0.0,-999.0,95,-99.99,,,-99.99,,2013-07-26 10:22:00,
2013-07-26 05:33:00,63.0,62.0,29.99,NE,46,0.0,-999.0,95,-99.99,,,-99.99,,2013-07-26 10:33:00,
2013-07-26 05:42:00,63.0,62.0,29.99,NE,46,0.0,-999.0,95,-99.99,,,-99.99,,2013-07-26 10:42:00,
2013-07-26 05:52:00,63.0,62.0,29.99,NE,46,0.0,-999.0,95,-99.99,,,-99.99,,2013-07-26 10:52:00,
2013-07-26 06:02:00,63.0,62.0,29.99,NE,46,0.0,-999.0,95,-99.99,,,-99.99,,2013-07-26 11:02:00,
2013-07-26 06:12:00,63.0,62.0,29.99,NE,46,0.0,-999.0,95,-99.99,,,-99.99,,2013-07-26 11:12:00,
2013-07-26 06:22:00,63.0,62.0,30.00,WNW,294,0.0,-999.0,95,-99.99,,,-99.99,,2013-07-26 11:22:00,
2013-07-26 06:32:00,63.0,62.0,29.99,WNW,294,0.0,-999.0,95,-99.99,,,-99.99,,2013-07-26 11:32:00,
2013-07-26 06:43:00,63.0,62.0,29.99,WNW,294,0.0,-999.0,95,-99.99,,,-99.99,,2013-07-26 11:43:00,
2013-07-26 06:52:00,63.0,62.0,30.00,WNW,294,0.0,-999.0,95,-99.99,,,-99.99,,2013-07-26 11:52:00,
2013-07-26 07:02:00,64.0,63.0,29.99,WNW,294,0.0,-999.0,95,-99.99,,,-99.99,,2013-07-26 12:02:00,
2013-07-26 07:12:00,64.0,63.0,29.99,WNW,294,0.0,-999.0,95,-99.99,,,-99.99,,2013-07-26 12:12:00,
2013-07-26 07:22:00,64.0,63.0,29.99,WNW,294,0.0,-999.0,95,-99.99,,,-99.99,,2013-07-26 12:22:00,
2013-07-26 07:33:00,64.0,63.0,29.99,SW,229,0.0,-999.0,95,-99.99,,,-99.99,,2013-07-26 12:33:00,
2013-07-26 07:43:00,64.0,63.0,29.99,SW,229,0.0,-999.0,95,-99.99,,,-99.99,,2013-07-26 12:43:00,
2013-07-26 07:53:00,64.0,63.0,29.99,NNE,29,0.0,-999.0,95,-99.99,,,-99.99,,2013-07-26 12:53:00,
2013-07-26 08:02:00,65.0,64.0,29.99,NNE,29,0.0,-999.0,95,-99.99,,,-99.99,,2013-07-26 13:02:00,
2013-07-26 08:12:00,65.0,64.0,29.99,NNE,29,0.0,-999.0,95,-99.99,,,-99.99,,2013-07-26 13:12:00,
2013-07-26 08:23:00,65.0,64.0,30.00,NNE,29,0.0,-999.0,95,-99.99,,,-99.99,,2013-07-26 13:23:00,
2013-07-26 08:43:00,66.0,65.0,30.00,NNE,29,0.0,-999.0,95,-99.99,,,-99.99,,2013-07-26 13:43:00,
2013-07-26 08:53:00,66.0,65.0,30.00,NNE,12,0.0,-999.0,95,-99.99,,,-99.99,,2013-07-26 13:53:00,
2013-07-26 09:02:00,67.0,66.0,30.00,NNE,12,0.0,-999.0,95,-99.99,,,-99.99,,2013-07-26 14:02:00,
2013-07-26 09:12:00,67.0,66.0,30.00,NNE,12,0.0,-999.0,95,-99.99,,,-99.99,,2013-07-26 14:12:00,
2013-07-26 09:22:00,68.0,66.0,30.00,NNE,12,0.0,-999.0,94,-99.99,,,-99.99,,2013-07-26 14:22:00,
2013-07-26 09:32:00,68.0,66.0,29.99,NNE,31,0.0,-999.0,92,-99.99,,,-99.99,,2013-07-26 14:32:00,
2013-07-26 09:43:00,68.0,66.0,29.99,NNE,31,0.0,-999.0,92,-99.99,,,-99.99,,2013-07-26 14:43:00,
2013-07-26 09:53:00,69.0,66.0,29.99,NNE,32,0.0,-999.0,90,-99.99,,,-99.99,,2013-07-26 14:53:00,
2013-07-26 10:02:00,70.0,66.0,29.99,NNE,32,0.0,-999.0,88,-99.99,,,-99.99,,2013-07-26 15:02:00,
2013-07-26 10:12:00,70.0,66.0,29.99,NNE,32,0.0,-999.0,88,-99.99,,,-99.99,,2013-07-26 15:12:00,
2013-07-26 10:22:00,70.0,66.0,29.99,South,183,0.0,-999.0,87,-99.99,,,-99.99,,2013-07-26 15:22:00,
2013-07-26 10:33:00,71.0,67.0,29.99,SSE,158,0.0,-999.0,87,-99.99,,,-99.99,,2013-07-26 15:33:00,
2013-07-26 10:43:00,71.0,67.0,29.99,SSE,158,0.0,-999.0,87,-99.99,,,-99.99,,2013-07-26 15:43:00,
2013-07-26 10:53:00,71.0,67.0,30.00,SSE,158,0.0,-999.0,86,-99.99,,,-99.99,,2013-07-26 15:53:00,
2013-07-26 11:02:00,71.0,67.0,30.01,SSE,158,0.0,-999.0,87,-99.99,,,-99.99,,2013-07-26 16:02:00,
2013-07-26 11:14:00,71.0,67.0,30.01,SSE,158,0.0,-999.0,87,-99.99,,,-99.99,,2013-07-26 16:14:00,
2013-07-26 11:22:00,71.0,67.0,30.01,SSE,159,0.0,-999.0,87,-99.99,,,-99.99,,2013-07-26 16:22:00,
2013-07-26 11:32:00,71.0,67.0,30.01,SSE,159,0.0,-999.0,88,-99.99,,,-99.99,,2013-07-26 16:32:00,
2013-07-26 11:43:00,71.0,67.0,30.01,SSE,159,0.0,-999.0,88,-99.99,,,-99.99,,2013-07-26 16:43:00,
2013-07-26 11:54:00,71.0,68.0,30.01,SSE,159,0.0,-999.0,89,-99.99,,,-99.99,,2013-07-26 16:54:00,
2013-07-26 12:02:00,71.0,68.0,30.02,NNW,343,0.0,-999.0,89,-99.99,,,-99.99,,2013-07-26 17:02:00,
2013-07-26 12:12:00,71.0,68.0,30.02,NNW,343,0.0,-999.0,89,-99.99,,,-99.99,,2013-07-26 17:12:00,
2013-07-26 12:22:00,71.0,68.0,30.02,NW,323,0.0,-999.0,89,-99.99,,,-99.99,,2013-07-26 17:22:00,
2013-07-26 12:33:00,71.0,68.0,30.03,NW,323,0.0,-999.0,90,-99.99,,,-99.99,,2013-07-26 17:33:00,
2013-07-26 12:43:00,71.0,68.0,30.03,NW,323,0.0,-999.0,90,-99.99,,,-99.99,,2013-07-26 17:43:00,
2013-07-26 12:53:00,70.0,67.0,30.03,NNE,31,0.0,-999.0,89,-99.99,,,-99.99,,2013-07-26 17:53:00,
2013-07-26 13:02:00,70.0,67.0,30.03,NNE,31,0.0,-999.0,90,-99.99,,,-99.99,,2013-07-26 18:02:00,
2013-07-26 13:12:00,70.0,67.0,30.03,NNE,31,0.0,-999.0,90,-99.99,,,-99.99,,2013-07-26 18:12:00,
2013-07-26 13:23:00,69.0,66.0,30.03,NNE,31,0.0,-999.0,91,-99.99,,,-99.99,,2013-07-26 18:23:00,
2013-07-26 13:33:00,69.0,66.0,30.03,SSE,158,0.0,-999.0,91,-99.99,,,-99.99,,2013-07-26 18:33:00,
2013-07-26 13:43:00,69.0,66.0,30.03,SSE,158,0.0,-999.0,91,-99.99,,,-99.99,,2013-07-26 18:43:00,
2013-07-26 13:52:00,68.0,66.0,30.03,SSE,158,0.0,-999.0,92,-99.99,,,-99.99,,2013-07-26 18:52:00,
2013-07-26 14:03:00,68.0,66.0,30.01,SSE,153,0.0,-999.0,93,-99.99,,,-99.99,,2013-07-26 19:03:00,
2013-07-26 14:12:00,68.0,66.0,30.01,SSE,153,0.0,-999.0,93,-99.99,,,-99.99,,2013-07-26 19:12:00,
2013-07-26 14:22:00,68.0,66.0,30.01,SSE,148,0.0,-999.0,94,-99.99,,,-99.99,,2013-07-26 19:22:00,
2013-07-26 14:32:00,68.0,66.0,30.02,SSE,148,0.0,-999.0,94,-99.99,,,-99.99,,2013-07-26 19:32:00,
2013-07-26 14:43:00,68.0,66.0,30.02,SSE,148,0.0,-999.0,94,-99.99,,,-99.99,,2013-07-26 19:43:00,
2013-07-26 14:52:00,69.0,67.0,30.01,SSE,148,0.0,-999.0,94,-99.99,,,-99.99,,2013-07-26 19:52:00,
2013-07-26 15:02:00,69.0,67.0,30.01,SSE,148,0.0,-999.0,93,-99.99,,,-99.99,,2013-07-26 20:02:00,
2013-07-26 15:12:00,69.0,67.0,30.01,SSE,148,0.0,-999.0,93,-99.99,,,-99.99,,2013-07-26 20:12:00,
2013-07-26 15:22:00,69.0,67.0,30.01,ESE,108,0.0,-999.0,92,-99.99,,,-99.99,,2013-07-26 20:22:00,
2013-07-26 15:32:00,70.0,68.0,30.01,ENE,69,0.0,-999.0,93,-99.99,,,-99.99,,2013-07-26 20:32:00,
2013-07-26 15:43:00,70.0,68.0,30.01,ENE,69,0.0,-999.0,93,-99.99,,,-99.99,,2013-07-26 20:43:00,
2013-07-26 15:53:00,70.0,68.0,30.01,ENE,69,0.0,-999.0,92,-99.99,,,-99.99,,2013-07-26 20:53:00,
2013-07-26 16:02:00,70.0,68.0,30.01,ENE,69,0.0,-999.0,92,-99.99,,,-99.99,,2013-07-26 21:02:00,
2013-07-26 16:12:00,70.0,68.0,30.01,ENE,69,0.0,-999.0,92,-99.99,,,-99.99,,2013-07-26 21:12:00,
2013-07-26 16:22:00,70.0,68.0,30.00,ENE,69,0.0,-999.0,92,-99.99,,,-99.99,,2013-07-26 21:22:00,
2013-07-26 16:32:00,70.0,68.0,29.99,ENE,69,0.0,-999.0,93,-99.99,,,-99.99,,2013-07-26 21:32:00,
2013-07-26 16:43:00,70.0,68.0,29.99,ENE,69,0.0,-999.0,93,-99.99,,,-99.99,,2013-07-26 21:43:00,
2013-07-26 16:53:00,70.0,68.0,30.00,ENE,69,0.0,-999.0,93,-99.99,,,-99.99,,2013-07-26 21:53:00,
2013-07-26 17:02:00,69.0,67.0,29.99,East,80,1.0,-999.0,92,-99.99,,,-99.99,,2013-07-26 22:02:00,
2013-07-26 17:12:00,69.0,67.0,29.99,East,80,1.0,-999.0,92,-99.99,,,-99.99,,2013-07-26 22:12:00,
2013-07-26 17:22:00,69.0,67.0,29.99,ENE,77,0.0,-999.0,93,-99.99,,,-99.99,,2013-07-26 22:22:00,
2013-07-26 17:33:00,69.0,67.0,29.98,ENE,71,1.0,-999.0,93,-99.99,,,-99.99,,2013-07-26 22:33:00,
2013-07-26 17:43:00,69.0,67.0,29.98,ENE,71,1.0,-999.0,93,-99.99,,,-99.99,,2013-07-26 22:43:00,
2013-07-26 17:53:00,70.0,68.0,29.98,East,80,0.0,-999.0,93,-99.99,,,-99.99,,2013-07-26 22:53:00,
2013-07-26 18:02:00,70.0,68.0,29.97,East,80,0.0,-999.0,93,-99.99,,,-99.99,,2013-07-26 23:02:00,
2013-07-26 18:12:00,70.0,68.0,29.97,East,80,0.0,-999.0,93,-99.99,,,-99.99,,2013-07-26 23:12:00,
2013-07-26 18:22:00,70.0,68.0,29.97,ENE,76,0.0,-999.0,92,-99.99,,,-99.99,,2013-07-26 23:22:00,
2013-07-26 18:32:00,70.0,68.0,29.97,ENE,76,0.0,-999.0,93,-99.99,,,-99.99,,2013-07-26 23:32:00,
2013-07-26 18:43:00,70.0,68.0,29.97,ENE,76,0.0,-999.0,93,-99.99,,,-99.99,,2013-07-26 23:43:00,
2013-07-26 18:53:00,69.0,67.0,29.96,SE,133,0.0,-999.0,93,-99.99,,,-99.99,,2013-07-26 23:53:00,
2013-07-26 19:02:00,70.0,68.0,29.96,SE,133,0.0,-999.0,94,-99.99,,,-99.99,,2013-07-27 00:02:00,
2013-07-26 19:12:00,70.0,68.0,29.96,SE,133,0.0,-999.0,94,-99.99,,,-99.99,,2013-07-27 00:12:00,
2013-07-26 19:22:00,69.0,67.0,29.94,SE,133,0.0,-999.0,94,-99.99,,,-99.99,,2013-07-27 00:22:00,
2013-07-26 19:32:00,69.0,67.0,29.94,SE,133,0.0,-999.0,94,-99.99,,,-99.99,,2013-07-27 00:32:00,
2013-07-26 19:43:00,69.0,67.0,29.94,SE,133,0.0,-999.0,94,-99.99,,,-99.99,,2013-07-27 00:43:00,
2013-07-26 19:53:00,69.0,67.0,29.94,SE,133,0.0,-999.0,94,-99.99,,,-99.99,,2013-07-27 00:53:00,
2013-07-26 20:02:00,69.0,67.0,29.94,SE,133,0.0,-999.0,94,-99.99,,,-99.99,,2013-07-27 01:02:00,
2013-07-26 20:12:00,69.0,67.0,29.95,SE,133,0.0,-999.0,94,-99.99,,,-99.99,,2013-07-27 01:12:00,
2013-07-26 20:22:00,69.0,67.0,29.94,SE,133,0.0,-999.0,94,-99.99,,,-99.99,,2013-07-27 01:22:00,
2013-07-26 20:32:00,69.0,67.0,29.94,SE,133,0.0,-999.0,94,-99.99,,,-99.99,,2013-07-27 01:32:00,
2013-07-26 20:43:00,69.0,68.0,29.94,SE,133,0.0,-999.0,95,-99.99,,,-99.99,,2013-07-27 01:43:00,
2013-07-26 20:53:00,69.0,68.0,29.94,SE,133,0.0,-999.0,95,-99.99,,,-99.99,,2013-07-27 01:53:00,
2013-07-26 21:02:00,69.0,68.0,29.93,SE,133,0.0,-999.0,95,-99.99,,,-99.99,,2013-07-27 02:02:00,
2013-07-26 21:12:00,69.0,68.0,29.93,SE,133,0.0,-999.0,95,-99.99,,,-99.99,,2013-07-27 02:12:00,
2013-07-26 21:22:00,68.0,67.0,29.94,SE,133,0.0,-999.0,95,-99.99,,,-99.99,,2013-07-27 02:22:00,
2013-07-26 21:32:00,68.0,67.0,29.94,SE,133,0.0,-999.0,95,-99.99,,,-99.99,,2013-07-27 02:32:00,
2013-07-26 21:43:00,68.0,67.0,29.94,SE,133,0.0,-999.0,95,-99.99,,,-99.99,,2013-07-27 02:43:00,
2013-07-26 21:53:00,68.0,67.0,29.96,SE,133,0.0,-999.0,95,-99.99,,,-99.99,,2013-07-27 02:53:00,
2013-07-26 22:03:00,68.0,67.0,29.97,SE,133,0.0,-999.0,95,-99.99,,,-99.99,,2013-07-27 03:03:00,
2013-07-26 22:12:00,68.0,67.0,29.97,SE,133,0.0,-999.0,95,-99.99,,,-99.99,,2013-07-27 03:12:00,
2013-07-26 22:22:00,68.0,67.0,29.97,SE,133,0.0,-999.0,95,-99.99,,,-99.99,,2013-07-27 03:22:00,
2013-07-26 22:33:00,68.0,67.0,29.96,SE,133,0.0,-999.0,95,-99.99,,,-99.99,,2013-07-27 03:33:00,
2013-07-26 22:44:00,68.0,67.0,29.96,SE,133,0.0,-999.0,95,-99.99,,,-99.99,,2013-07-27 03:44:00,
2013-07-26 22:52:00,68.0,67.0,29.96,SE,133,0.0,-999.0,95,-99.99,,,-99.99,,2013-07-27 03:52:00,
2013-07-26 23:02:00,68.0,67.0,29.96,SE,133,0.0,-999.0,95,-99.99,,,-99.99,,2013-07-27 04:02:00,
2013-07-26 23:12:00,68.0,67.0,29.96,SE,133,0.0,-999.0,95,-99.99,,,-99.99,,2013-07-27 04:12:00,
2013-07-26 23:22:00,67.0,66.0,29.96,SE,133,0.0,-999.0,95,-99.99,,,-99.99,,2013-07-27 04:22:00,
2013-07-26 23:32:00,67.0,66.0,29.96,SE,133,0.0,-999.0,95,-99.99,,,-99.99,,2013-07-27 04:32:00,
2013-07-26 23:43:00,67.0,66.0,29.96,SE,133,0.0,-999.0,95,-99.99,,,-99.99,,2013-07-27 04:43:00,
2013-07-26 23:53:00,67.0,66.0,29.97,SE,133,0.0,-999.0,95,-99.99,,,-99.99,,2013-07-27 04:53:00,